VE2CSM-13 Weather Reports


Display with metric or nautical units.
time (UTC)temp
F
wind
direction
speed
MPH
gust
MPH
rain 1hr
in
rain 24hr
in
rain mn
in
humidity
%
barometer
mb
20260507070040 40 0 0.0 0.0 0.00 0.39 0.00 96 1016.4
20260507065240 40 0 0.0 0.0 0.00 0.39 0.00 96 1016.4
20260507064440 39 0 0.0 0.0 0.00 0.39 0.00 96 1016.4
20260507063640 39 0 0.0 0.0 0.00 0.39 0.00 96 1016.3
20260507062841 39 0 0.0 0.0 0.00 0.39 0.00 96 1016.5
20260507062440 39 0 0.0 0.0 0.00 0.39 0.00 96 1016.4
20260507062041 39 0 0.0 0.0 0.00 0.39 0.00 96 1016.4
20260507061641 39 0 0.0 0.0 0.00 0.39 0.00 96 1016.6
20260507061240 39 0 0.0 0.0 0.00 0.39 0.00 96 1016.7
20260507060840 39 0 0.0 0.0 0.00 0.39 0.00 96 1016.7
20260507060640 39 0 0.0 0.0 0.00 0.39 0.00 96 1016.9
20260507060441 39 0 0.0 0.0 0.00 0.39 0.00 96 1016.9
20260507060340 39 0 0.0 0.0 0.00 0.39 0.00 96 1016.9
20260507060242 39 0 0.0 0.0 0.00 0.39 0.00 96 1016.9
20260507060140 39 0 0.0 0.0 0.00 0.39 0.00 96 1016.9
20260507055407 38 0 0.0 0.0 0.00 0.39 0.00 96 1017.1
20260507052407 38 0 0.0 0.0 0.00 0.39 0.00 95 1017.6
20260507045407 38 0 0.0 0.0 0.00 0.39 0.00 95 1017.6
20260507035409 40 0 0.0 0.0 0.00 0.39 0.39 95 1017.8
20260507025408 41 0 0.0 0.0 0.00 0.39 0.39 95 1018.4
20260507015407 41 0 0.0 0.0 0.00 0.39 0.39 94 1018.5
20260507005407 41 0 0.0 0.0 0.00 0.40 0.39 93 1018.4
20260506235408 43 0 0.0 0.0 0.00 0.41 0.39 91 1018.3
20260506232210 45 0 0.0 0.0 0.00 0.43 0.39 90 1018.1
20260506223408 46 0 0.0 0.0 0.00 0.43 0.39 82 1018.1
20260506222607 46 0 0.0 0.0 0.00 0.43 0.39 86 1018.2
20260506221807 46 0 0.0 0.0 0.00 0.43 0.39 84 1018.1
20260506221407 46 0 0.0 0.0 0.01 0.43 0.39 83 1018.1
20260506221008 46 0 0.0 0.0 0.01 0.43 0.39 83 1018.1
20260506220607 46 0 0.0 0.0 0.01 0.43 0.39 83 1018.3
20260506220208 46 0 0.0 0.0 0.01 0.43 0.39 84 1018.2
20260506215807 46 0 0.0 0.0 0.01 0.43 0.39 84 1018.2
20260506215407 46 0 0.0 0.0 0.01 0.43 0.39 85 1018.2
20260506215207 46 0 0.0 0.0 0.01 0.43 0.39 85 1018.2
20260506215107 46 0 0.0 0.0 0.01 0.43 0.39 85 1018.2
20260506214743 46 0 0.0 0.0 0.01 0.43 0.39 84 1018.4
20260506204744 45 42 1.0 1.0 0.00 0.43 0.38 85 1018.5
20260506194744 45 322 0.0 1.0 0.00 0.43 0.38 83 1018.8
20260506184744 46 0 0.0 0.0 0.00 0.43 0.38 85 1018.8
20260506174744 44 315 0.0 1.0 0.04 0.43 0.38 88 1019.4
20260506164744 44 298 1.0 2.0 0.04 0.45 0.34 88 1019.9
20260506161543 44 275 1.0 2.0 0.06 0.46 0.32 89 1020.2
20260506155943 44 257 1.0 2.0 0.07 0.53 0.31 90 1020.5
20260506154343 44 261 0.0 2.0 0.09 0.52 0.30 91 1020.5
20260506153543 44 254 1.0 2.0 0.10 0.50 0.28 91 1020.5
20260506152744 44 255 1.0 3.0 0.11 0.50 0.28 90 1020.7
20260506151144 44 270 1.0 2.0 0.09 0.47 0.25 91 1020.7
20260506150343 44 271 1.0 2.0 0.10 0.47 0.25 91 1020.8
20260506145544 44 269 1.0 2.0 0.10 0.46 0.24 91 1020.8
20260506145144 44 271 1.0 2.0 0.08 0.44 0.22 91 1020.6
20260506144943 44 271 1.0 2.0 0.08 0.44 0.22 91 1020.6
20260506144745 44 267 1.0 3.0 0.08 0.43 0.21 91 1020.7
20260506144445 44 267 1.0 3.0 0.08 0.43 0.21 91 1020.7
20260506143853 45 261 1.0 2.0 0.06 0.41 0.19 91 1020.5
20260506142252 45 276 1.0 2.0 0.06 0.39 0.17 90 1020.4
20260506141852 45 284 1.0 2.0 0.05 0.38 0.16 91 1020.5
20260506141454 45 284 1.0 2.0 0.05 0.38 0.16 91 1020.5
20260506141052 45 287 1.0 2.0 0.06 0.38 0.16 91 1020.5
20260506140653 45 287 1.0 2.0 0.05 0.37 0.15 91 1020.6
20260506140252 45 287 1.0 2.0 0.05 0.37 0.15 91 1020.6
20260506140052 45 0 0.0 0.0 0.05 0.36 0.14 91 1020.5
20260506135852 45 0 0.0 0.0 0.05 0.36 0.14 91 1020.5
20260506135652 45 0 0.0 0.0 0.05 0.36 0.14 91 1020.5
20260506135552 45 0 0.0 0.0 0.05 0.36 0.14 91 1020.5
20260506135352 45 0 0.0 0.0 0.05 0.36 0.14 91 1020.1
20260506134958 45 0 0.0 0.0 0.05 0.35 0.13 91 1020.4
20260506134628 45 0 0.0 0.0 0.05 0.35 0.13 91 1020.4
20260506134556 45 0 0.0 0.0 0.05 0.35 0.13 91 1020.4
20260506134352 45 0 0.0 0.0 0.04 0.34 0.12 91 1020.2
20260506134153 45 0 0.0 0.0 0.04 0.34 0.12 91 1020.2
20260506133954 45 0 0.0 0.0 0.04 0.34 0.12 91 1020.2
20260506133602 45 0 0.0 0.0 0.04 0.34 0.12 91 1020.2
20260506132848 45 241 0.0 1.0 0.04 0.33 0.11 91 1020.2
20260506132748 45 241 0.0 1.0 0.04 0.33 0.11 91 1020.2
20260506132459 45 241 0.0 1.0 0.04 0.33 0.11 91 1020.2
20260506132221 45 241 0.0 1.0 0.04 0.33 0.11 91 1020.2
20260506132121 45 241 0.0 1.0 0.04 0.33 0.11 91 1020.2
20260506131752 45 241 0.0 1.0 0.04 0.33 0.11 91 1020.4
20260506131546 44 259 1.0 3.0 0.04 0.32 0.10 91 1020.5
20260506131347 44 259 1.0 3.0 0.04 0.32 0.10 91 1020.5
20260506131146 44 259 1.0 3.0 0.04 0.32 0.10 91 1020.5
20260506130501 44 268 1.0 2.0 0.04 0.32 0.10 90 1020.3
20260506120505 44 273 2.0 3.0 0.04 0.28 0.06 88 1020.3
20260506110500 46 287 1.0 3.0 0.02 0.24 0.02 86 1019.7
20260506100501 49 270 2.0 4.0 0.00 0.22 0.00 84 1018.8
20260506090501 50 271 2.0 6.0 0.00 0.22 0.00 82 1018.9
20260506080502 51 273 1.0 3.0 0.00 0.22 0.00 80 1018.2
20260506073300 51 270 2.0 4.0 0.00 0.22 0.00 78 1017.8